Home > Weather > Yakutsk > Past weeks

Flag for Russia Weather for the Past 2 Weeks in Yakutsk, Russia

Now
-47 °F

Extremely cold.


Feels Like: -47 °F
Forecast: -45 / -34 °F
Wind: No wind

Location: Jakutsk

Current Time: Feb 9, 2016 at 8:47:43 AM

Latest Report: Feb 9, 2016 at 8:00 AM


Visibility: 0 mi

Pressure: 29.95 "Hg

Humidity: 56%

Dew point: -56 °F

Location of YakutskLocation

Historic Weather in Yakutsk — Graph

°F

Yakutsk Temperature Yesterday

Maximum temperature yesterday: -38 °F (at 12:30 PM)
Minimum temperature yesterday: -47 °F (at 12:30 AM)
Average temperature yesterday: -44 °F

High & Low Weather Summary for the Past Weeks

 TemperatureHumidityPressure
High-27 °F (Jan 25, 7:00 PM)74% (Jan 25, 1:00 PM)30.42 "Hg (Jan 25, 1:00 PM)
Low-56 °F (Feb 6, 5:30 AM)48% (Feb 6, 6:30 AM)29.65 "Hg (Jan 25, 11:00 PM)
Average-41 °F62%30.09 "Hg
* Reported Jan 25 7:00 AM — Feb 9 7:00 AM, Yakutsk, Weather by CustomWeather, © 2016

Note: Actual official high and low records may vary slightly from our data, if they occured in-between our weather recording intervals... More about our weather records

Advertising

Yakutsk Weather History for the Previous 24 Hours

 ConditionsComfort  
Time TempWeatherWind HumidityBarometerVisibility
7:00 AM
Tue, Feb 9
-47 °FFog.No wind56%29.95 "Hg0 mi
6:30 AM-47 °FFog.No wind56%29.95 "Hg0 mi
6:00 AM-47 °FFog.No wind56%29.95 "Hg0 mi
5:30 AM-47 °FFog.No wind56%29.95 "Hg0 mi
5:00 AM-47 °FFog.No wind56%29.95 "Hg0 mi
4:30 AM-47 °FFog.No wind56%29.95 "Hg0 mi
4:00 AM-47 °FExtremely cold.No wind63%29.95 "Hg0 mi
3:30 AM-45 °FExtremely cold.No wind57%29.95 "Hg0 mi
3:00 AM-45 °FExtremely cold.No wind57%29.95 "Hg0 mi
2:30 AM-45 °FFog.No wind57%29.92 "Hg0 mi
2:00 AM-45 °FFog.No wind57%29.92 "Hg0 mi
1:30 AM-45 °FFog.No wind57%29.92 "Hg0 mi
1:00 AM-45 °FFog.No wind64%29.92 "Hg0 mi
12:30 AM-45 °FFog.No wind57%29.92 "Hg0 mi
12:00 AM-45 °FExtremely cold.No wind64%29.92 "Hg0 mi
11:30 PM
Mon, Feb 8
-45 °FExtremely cold.No wind64%29.92 "Hg0 mi
11:00 PM-45 °FExtremely cold.No wind57%29.92 "Hg0 mi
10:30 PM-45 °FExtremely cold.No wind64%29.92 "Hg0 mi
10:00 PM-44 °FExtremely cold.No wind57%29.92 "Hg0 mi
9:30 PM-44 °FFog.1 mph57%29.92 "Hg0 mi
9:00 PM-44 °FExtremely cold.1 mph57%29.89 "Hg0 mi
8:30 PM-45 °FFog.No wind64%29.89 "Hg0 mi
8:00 PM-45 °FFog.No wind64%29.92 "Hg0 mi
7:30 PM-44 °FFog.No wind64%29.92 "Hg0 mi
7:00 PM-44 °FFog.No wind64%29.89 "Hg0 mi
6:30 PM-44 °FExtremely cold.No wind64%29.89 "Hg0 mi
6:00 PM-44 °FExtremely cold.No wind64%29.89 "Hg1 mi
5:30 PM-42 °FExtremely cold.No wind58%29.89 "Hg1 mi
5:00 PM-42 °FExtremely cold.No wind58%29.89 "Hg1 mi
4:30 PM-42 °FFog.1 mph65%29.89 "Hg1 mi
4:00 PM-40 °FExtremely cold.No wind65%29.89 "Hg1 mi
3:30 PM-40 °FIce fog.No wind65%29.89 "Hg1 mi
3:00 PM-40 °FIce fog.1 mph65%29.89 "Hg1 mi
2:30 PM-40 °FIce fog.1 mph65%29.89 "Hg3 mi
2:00 PM-40 °FIce fog.1 mph65%29.89 "Hg3 mi
1:30 PM-40 °FIce fog.1 mph58%29.89 "Hg1 mi
1:00 PM-40 °FExtremely cold.1 mph65%29.89 "Hg1 mi
12:30 PM-38 °FExtremely cold.No wind58%29.89 "Hg1 mi
12:00 PM-42 °FExtremely cold.No wind65%29.89 "Hg1 mi
11:30 AM-42 °FFog.No wind58%29.89 "Hg1 mi
11:00 AM-44 °FExtremely cold.No wind57%29.89 "Hg1 mi
10:30 AM-45 °FExtremely cold.1 mph64%29.89 "Hg1 mi
10:00 AM-45 °FExtremely cold.No wind57%29.89 "Hg1 mi
9:30 AM-47 °FExtremely cold.1 mph56%29.89 "Hg0 mi
9:00 AM-47 °FExtremely cold.No wind56%29.89 "Hg0 mi
8:00 AM-47 °FExtremely cold.No wind56%29.89 "Hg0 mi
Weather by CustomWeather, © 2016

See weather overviewHow to use our weather pages